DW2213 Weather Reports


time (UTC)temp
C
wind
direction
speed
KPH
gust
KPH
rain 1hr
cm
rain 24hr
cm
rain mn
cm
humidity
%
barometer
mb
20260506150805 21 72 14.5 22.5 0.00 0.00 0.00 58 1009.4
20260506150305 21 108 11.3 19.3 0.00 0.00 0.00 58 1009.4
20260506145805 21 104 14.5 20.9 0.00 0.00 0.00 58 1009.5
20260506145306 22 89 16.1 29.0 0.00 0.00 0.00 56 1009.5
20260506144305 22 126 16.1 24.1 0.00 0.00 0.00 56 1009.5
20260506143804 22 142 12.9 24.1 0.00 0.00 0.00 55 1009.6
20260506143305 22 64 16.1 25.7 0.00 0.00 0.00 54 1009.8
20260506142804 23 26 16.1 33.8 0.00 0.00 0.00 54 1009.7
20260506141804 23 104 14.5 25.7 0.00 0.00 0.00 55 1009.8
20260506141304 22 85 14.5 20.9 0.00 0.00 0.00 55 1009.9
20260506140805 22 100 16.1 27.4 0.00 0.00 0.00 54 1009.9
20260506140304 23 44 19.3 29.0 0.00 0.00 0.00 53 1009.9
20260506135805 23 102 14.5 24.1 0.00 0.00 0.00 54 1009.9
20260506135306 23 29 14.5 25.7 0.00 0.00 0.00 53 1009.9
20260506134805 23 74 12.9 25.7 0.00 0.00 0.00 53 1009.9
20260506133804 22 107 16.1 29.0 0.00 0.00 0.00 55 1009.9
20260506133305 23 65 9.7 27.4 0.00 0.00 0.00 53 1010.0
20260506132805 23 44 11.3 20.9 0.00 0.00 0.00 53 1010.0
20260506132307 23 76 12.9 22.5 0.00 0.00 0.00 54 1010.0
20260506131805 23 71 14.5 25.7 0.00 0.00 0.00 54 1010.0
20260506131304 23 79 14.5 24.1 0.00 0.00 0.00 53 1010.0
20260506130805 23 92 16.1 32.2 0.00 0.00 0.00 52 1010.1
20260506130305 23 20 12.9 24.1 0.00 0.00 0.00 51 1010.1
20260506125804 23 64 14.5 24.1 0.00 0.00 0.00 52 1010.2
20260506125305 23 47 14.5 22.5 0.00 0.00 0.00 52 1010.2
20260506124804 22 56 16.1 29.0 0.00 0.00 0.00 52 1010.3
20260506124305 23 69 14.5 25.7 0.00 0.00 0.00 48 1010.3
20260506123804 23 85 11.3 19.3 0.00 0.00 0.00 48 1010.3
20260506123304 23 70 12.9 24.1 0.00 0.00 0.00 48 1010.4
20260506122804 23 46 12.9 22.5 0.00 0.00 0.00 51 1010.4
20260506122306 23 106 9.7 19.3 0.00 0.00 0.00 51 1010.4
20260506121804 23 40 9.7 24.1 0.00 0.00 0.00 49 1010.4
20260506121305 23 35 11.3 20.9 0.00 0.00 0.00 48 1010.4
20260506120804 23 25 9.7 20.9 0.00 0.00 0.00 48 1010.5
20260506120304 23 77 11.3 20.9 0.00 0.00 0.00 50 1010.5
20260506115804 23 31 14.5 20.9 0.00 0.00 0.00 50 1010.5
20260506115307 23 84 9.7 16.1 0.00 0.00 0.00 51 1010.5
20260506114805 23 39 11.3 22.5 0.00 0.00 0.00 51 1010.6
20260506114304 23 107 14.5 25.7 0.00 0.00 0.00 51 1010.6
20260506113304 23 41 11.3 19.3 0.00 0.00 0.00 51 1010.7
20260506112804 23 125 11.3 22.5 0.00 0.00 0.00 52 1010.7
20260506111804 22 83 9.7 20.9 0.00 0.00 0.00 52 1010.9
20260506111304 23 94 9.7 20.9 0.00 0.00 0.00 54 1010.8
20260506110804 23 36 9.7 19.3 0.00 0.00 0.00 53 1010.8
20260506110305 23 128 9.7 20.9 0.00 0.00 0.00 52 1010.9
20260506105804 22 112 9.7 24.1 0.00 0.00 0.00 52 1010.9
20260506105305 22 43 8.0 22.5 0.00 0.00 0.00 54 1010.9
20260506104805 22 74 8.0 19.3 0.00 0.00 0.00 54 1010.9
20260506104305 22 43 11.3 19.3 0.00 0.00 0.00 55 1011.0
20260506103805 22 71 8.0 14.5 0.00 0.00 0.00 57 1011.0
20260506103304 21 53 9.7 19.3 0.00 0.00 0.00 58 1011.0
20260506102805 21 108 6.4 19.3 0.00 0.00 0.00 56 1011.1
20260506101804 22 111 11.3 19.3 0.00 0.00 0.00 56 1011.2
20260506101305 21 81 6.4 19.3 0.00 0.00 0.00 56 1011.2
20260506100804 21 81 9.7 14.5 0.00 0.00 0.00 56 1011.2
20260506100305 21 71 4.8 12.9 0.00 0.00 0.00 56 1011.2
20260506094805 21 101 3.2 9.7 0.00 0.00 0.00 57 1011.2
20260506094305 21 113 4.8 11.3 0.00 0.00 0.00 58 1011.2
20260506093805 21 148 4.8 12.9 0.00 0.00 0.00 57 1011.1
20260506093304 21 149 3.2 16.1 0.00 0.00 0.00 56 1011.1
20260506092804 21 145 4.8 14.5 0.00 0.00 0.00 56 1011.1
20260506092306 21 93 6.4 12.9 0.00 0.00 0.00 57 1011.0
20260506091805 21 107 4.8 11.3 0.00 0.00 0.00 58 1011.0
20260506091304 21 121 4.8 11.3 0.00 0.00 0.00 59 1011.0
20260506090804 20 96 4.8 12.9 0.00 0.00 0.00 58 1011.0
20260506085804 21 78 4.8 9.7 0.00 0.00 0.00 58 1010.9
20260506085306 21 100 4.8 12.9 0.00 0.00 0.00 58 1010.9
20260506084804 21 103 4.8 12.9 0.00 0.00 0.00 59 1010.9
20260506084304 20 118 8.0 19.3 0.00 0.00 0.00 59 1011.0
20260506083804 20 98 4.8 9.7 0.00 0.00 0.00 59 1011.0
20260506083305 20 96 4.8 8.0 0.00 0.00 0.00 59 1011.0
20260506082805 20 85 3.2 8.0 0.00 0.00 0.00 60 1011.0
20260506081304 20 58 4.8 9.7 0.00 0.00 0.00 62 1011.0
20260506080804 20 74 3.2 8.0 0.00 0.00 0.00 64 1010.9
20260506080304 19 336 3.2 4.8 0.00 0.00 0.00 63 1010.9
20260506072804 18 336 3.2 4.8 0.00 0.00 0.00 69 1010.9
20260506072305 18 324 3.2 9.7 0.00 0.00 0.00 69 1011.0
20260506071805 17 313 3.2 4.8 0.00 0.00 0.00 71 1011.0
20260506071304 17 315 3.2 4.8 0.00 0.00 0.00 72 1011.0
20260506070804 17 314 3.2 4.8 0.00 0.00 0.00 73 1011.0
20260506062305 16 59 1.6 8.0 0.00 0.00 0.00 76 1010.9
20260506061804 16 59 0.0 3.2 0.00 0.00 0.00 76 1010.9
20260506060805 16 59 0.0 3.2 0.00 0.00 0.00 77 1010.8
20260506060304 16 59 0.0 3.2 0.00 0.00 0.00 77 1010.8
20260506051304 15 59 0.0 3.2 0.00 0.00 0.00 81 1010.4
20260506050805 15 59 0.0 0.0 0.00 0.00 0.00 81 1010.4
20260506050304 15 59 0.0 0.0 0.00 0.00 0.00 81 1010.3
20260506044804 16 61 0.0 3.2 0.00 0.00 0.00 79 1010.2
20260506044304 16 61 0.0 1.6 0.00 0.00 0.00 79 1010.1
20260506043804 16 61 0.0 3.2 0.00 0.00 0.00 78 1010.2
20260506043304 16 61 0.0 4.8 0.00 0.00 0.00 78 1010.1
20260506042305 16 61 0.0 0.0 0.00 0.00 0.00 78 1010.1
20260506041804 16 61 0.0 1.6 0.00 0.00 0.00 78 1010.1
20260506041304 16 61 1.6 8.0 0.00 0.00 0.00 77 1010.1
20260506040304 16 61 3.2 4.8 0.00 0.00 0.00 77 1010.1
20260506035804 16 61 1.6 3.2 0.00 0.00 0.00 78 1010.1
20260506035306 16 61 1.6 3.2 0.00 0.00 0.00 78 1010.1
20260506034804 16 61 0.0 3.2 0.00 0.00 0.00 78 1010.1
20260506034305 16 61 0.0 1.6 0.00 0.00 0.00 78 1010.1
20260506033304 16 61 0.0 0.0 0.00 0.00 0.00 78 1010.1
20260506032804 16 61 0.0 0.0 0.00 0.00 0.00 78 1010.2
20260506032306 16 61 1.6 3.2 0.00 0.00 0.00 78 1010.1
20260506031804 16 61 1.6 3.2 0.00 0.00 0.00 77 1010.1
20260506031304 16 61 0.0 1.6 0.00 0.00 0.00 78 1010.1
20260506030803 16 61 1.6 3.2 0.00 0.00 0.00 77 1010.1
20260506025804 16 61 0.0 1.6 0.00 0.00 0.00 77 1010.1
20260506024304 16 61 0.0 0.0 0.00 0.00 0.00 76 1010.2
20260506023804 16 61 0.0 4.8 0.00 0.00 0.00 76 1010.2
20260506023304 16 62 1.6 3.2 0.00 0.00 0.00 75 1010.2
20260506022804 16 61 0.0 0.0 0.00 0.00 0.00 76 1010.2
20260506022306 16 61 0.0 3.2 0.00 0.00 0.00 75 1010.2
20260506021804 16 61 0.0 3.2 0.00 0.00 0.00 76 1010.2
20260506021304 16 61 1.6 3.2 0.00 0.00 0.00 75 1010.2
20260506020805 16 61 0.0 3.2 0.00 0.00 0.00 75 1010.2
20260506015804 17 61 1.6 3.2 0.00 0.00 0.00 75 1010.1
20260506015306 17 61 1.6 3.2 0.00 0.00 0.00 76 1010.1
20260506014804 17 61 1.6 4.8 0.00 0.00 0.00 76 1010.1
20260506014304 17 61 1.6 4.8 0.00 0.00 0.00 76 1010.1
20260506013803 16 56 1.6 4.8 0.00 0.00 0.00 77 1010.1
20260506011804 16 61 3.2 8.0 0.00 0.00 0.00 77 1010.3
20260506011304 16 61 3.2 4.8 0.00 0.00 0.00 78 1010.2
20260506010804 16 61 3.2 4.8 0.00 0.00 0.00 78 1010.2
20260506010304 16 61 3.2 4.8 0.00 0.00 0.00 78 1010.2
20260506005306 17 61 1.6 4.8 0.00 0.00 0.00 77 1010.2
20260506004805 17 61 1.6 3.2 0.00 0.00 0.00 77 1010.3
20260506004304 17 61 1.6 4.8 0.00 0.00 0.00 76 1010.3
20260506003804 17 61 1.6 4.8 0.00 0.00 0.00 75 1010.4
20260506003304 17 61 1.6 4.8 0.00 0.00 0.00 75 1010.4
20260506002804 18 52 3.2 4.8 0.00 0.00 0.00 74 1010.5
20260506002306 18 60 1.6 3.2 0.00 0.00 0.00 74 1010.5
20260506001803 18 60 1.6 3.2 0.00 0.00 0.00 74 1010.5
20260506001304 18 61 1.6 4.8 0.00 0.00 0.00 73 1010.5
20260506000804 18 61 0.0 0.0 0.00 0.00 0.00 73 1010.6
20260505235804 18 61 3.2 4.8 0.00 0.00 0.00 73 1010.6
20260505235305 18 61 3.2 4.8 0.00 0.00 0.00 73 1010.6
20260505234304 18 61 3.2 4.8 0.00 0.00 0.00 73 1010.6
20260505233804 18 61 1.6 4.8 0.00 0.00 0.00 73 1010.6
20260505233304 18 56 4.8 8.0 0.00 0.00 0.00 73 1010.6
20260505232804 18 53 4.8 9.7 0.00 0.00 0.00 73 1010.5
20260505231304 18 53 3.2 11.3 0.00 0.00 0.00 72 1010.5
20260505230304 18 49 6.4 14.5 0.00 0.00 0.00 72 1010.4
20260505225804 18 55 8.0 16.1 0.00 0.00 0.00 72 1010.5
20260505225306 18 30 6.4 14.5 0.00 0.00 0.00 71 1010.5
20260505224803 18 26 8.0 19.3 0.00 0.00 0.00 71 1010.6
20260505224304 19 17 8.0 14.5 0.00 0.00 0.00 71 1010.6
20260505223804 19 25 6.4 11.3 0.00 0.00 0.00 70 1010.6
20260505223304 19 354 4.8 11.3 0.00 0.00 0.00 70 1010.6
20260505222804 18 46 6.4 16.1 0.00 0.00 0.00 70 1010.6
20260505222305 18 57 4.8 19.3 0.00 0.00 0.00 71 1010.6
20260505221804 18 63 6.4 19.3 0.00 0.00 0.00 71 1010.6
20260505220818 18 31 9.7 20.9 0.00 0.00 0.00 72 1010.6
20260505220305 18 13 9.7 16.1 0.00 0.00 0.00 72 1010.5
20260505215804 18 54 9.7 20.9 0.00 0.00 0.00 73 1010.4
20260505215305 18 46 8.0 22.5 0.00 0.00 0.00 73 1010.3
20260505214804 18 40 8.0 22.5 0.00 0.00 0.00 73 1010.3
20260505213804 18 23 8.0 22.5 0.00 0.00 0.00 75 1009.9
20260505213304 18 41 11.3 20.9 0.00 0.00 0.00 75 1009.8
20260505212804 19 41 11.3 32.2 0.00 0.00 0.00 76 1009.7
20260505212305 19 18 14.5 27.4 0.00 0.00 0.00 77 1009.7
20260505211804 19 28 9.7 22.5 0.00 0.00 0.00 77 1009.7
20260505211304 19 7 12.9 29.0 0.00 0.00 0.00 78 1009.6
20260505210804 20 15 16.1 27.4 0.00 0.00 0.00 78 1009.6
20260505210304 20 14 14.5 27.4 0.00 0.00 0.00 77 1009.6
20260505205804 20 11 14.5 29.0 0.00 0.00 0.00 77 1009.5
20260505205305 20 0 11.3 20.9 0.00 0.00 0.00 76 1009.3
20260505204803 20 19 11.3 20.9 0.00 0.00 0.00 76 1009.1
20260505204304 20 17 9.7 24.1 0.00 0.00 0.00 75 1009.0
20260505203804 21 17 11.3 19.3 0.00 0.00 0.00 74 1009.0
20260505203304 21 10 8.0 19.3 0.00 0.00 0.00 72 1008.9
20260505202803 21 24 8.0 22.5 0.00 0.00 0.00 70 1008.8
20260505201304 22 350 4.8 9.7 0.00 0.00 0.00 63 1008.7
20260505200804 22 153 3.2 4.8 0.00 0.00 0.00 63 1008.3
20260505195803 22 153 3.2 8.0 0.00 0.00 0.00 64 1008.1
20260505195305 22 153 1.6 3.2 0.00 0.00 0.00 64 1008.0
20260505194304 22 153 3.2 8.0 0.00 0.00 0.00 62 1007.8
20260505193803 22 148 3.2 8.0 0.00 0.00 0.00 61 1007.7
20260505193304 22 148 6.4 11.3 0.00 0.00 0.00 60 1007.7
20260505192804 22 145 9.7 12.9 0.00 0.00 0.00 60 1007.6
20260505192305 22 148 8.0 12.9 0.00 0.00 0.00 60 1007.5
20260505191804 22 155 8.0 12.9 0.00 0.00 0.00 61 1007.5
20260505191303 22 154 8.0 12.9 0.00 0.00 0.00 61 1007.4
20260505190304 22 158 8.0 12.9 0.00 0.00 0.00 60 1007.3
20260505185804 22 156 4.8 12.9 0.00 0.00 0.00 61 1007.3
20260505185305 23 144 4.8 12.9 0.00 0.00 0.00 61 1007.2
20260505184803 23 141 9.7 14.5 0.00 0.00 0.00 60 1007.2
20260505184303 23 147 6.4 12.9 0.00 0.00 0.00 60 1007.1
20260505183804 23 128 9.7 12.9 0.00 0.00 0.00 57 1007.1
20260505183303 23 148 3.2 4.8 0.00 0.00 0.00 58 1007.1
20260505182804 23 148 0.0 9.7 0.00 0.00 0.00 59 1007.1
20260505182306 23 146 8.0 12.9 0.00 0.00 0.00 59 1007.1
20260505181303 23 156 8.0 12.9 0.00 0.00 0.00 57 1007.1
20260505175803 23 142 14.5 16.1 0.00 0.00 0.00 57 1007.1
20260505175305 24 141 14.5 22.5 0.00 0.00 0.00 57 1007.0
20260505174804 24 146 9.7 19.3 0.00 0.00 0.00 57 1007.0
20260505174305 24 105 9.7 20.9 0.00 0.00 0.00 56 1007.0
20260505173805 24 144 11.3 19.3 0.00 0.00 0.00 55 1007.0
20260505173305 24 83 9.7 19.3 0.00 0.00 0.00 54 1007.0
20260505172806 25 79 14.5 20.9 0.00 0.00 0.00 54 1007.0
20260505171805 24 148 12.9 19.3 0.00 0.00 0.00 54 1007.0
20260505171304 24 153 4.8 12.9 0.00 0.00 0.00 56 1007.0
20260505170805 24 155 8.0 19.3 0.00 0.00 0.00 59 1006.9
20260505170304 24 128 9.7 19.3 0.00 0.00 0.00 61 1006.9
20260505165306 24 142 8.0 16.1 0.00 0.00 0.00 62 1007.1
20260505164805 23 140 14.5 19.3 0.00 0.00 0.00 63 1007.1
20260505164305 23 169 8.0 14.5 0.00 0.00 0.00 63 1007.1
20260505163804 24 150 11.3 19.3 0.00 0.00 0.00 62 1007.2
20260505163305 24 124 9.7 22.5 0.00 0.00 0.00 61 1007.2
20260505162805 25 142 11.3 27.4 0.00 0.00 0.00 60 1007.2
20260505162307 25 122 19.3 24.1 0.00 0.00 0.00 59 1007.1
20260505161804 25 53 12.9 27.4 0.00 0.00 0.00 61 1007.2
20260505161305 24 122 17.7 25.7 0.00 0.00 0.00 61 1007.2
20260505160805 24 16 19.3 32.2 0.00 0.00 0.00 60 1007.2
20260505160304 25 11 16.1 25.7 0.00 0.00 0.00 59 1007.2
20260505153305 25 98 14.5 22.5 0.00 0.00 0.00 55 1007.2
20260505152805 25 114 16.1 32.2 0.00 0.00 0.00 55 1007.3
20260505152305 25 119 19.3 32.2 0.00 0.00 0.00 55 1007.3
20260505151805 25 73 17.7 27.4 0.00 0.00 0.00 55 1007.3
20260505151304 25 94 14.5 24.1 0.00 0.00 0.00 55 1007.3